COSMOS 2491 DEB, 57556

Orbit data source: Space-Track

COSMOS 2491 DEB, 57556 is space debris in LEO originally from a launch on Wed, 25 Dec 2013 UTC launched from the Plesetsk Missile And Space Complex (PKMTR). Debris objects in space refer to the collection of defunct objects orbiting the Earth. Examples of debris include non-operational satellites, rocket bodies, and fragments generated from explosions, collisions, or faulty payload assembly.

Loading next visibility...
Identifier
57556, 2013-076AT
Orbit
LEO
Country
Flag of CISCIS
Related business
Manufacturer
TsNIIKhM
Mission
Spacecraft
Bus & Motor
Unknown
Mass
Unknown
Launch date (UTC)
2013-12-25 (12 years ago)
Launch vehicle
Unknown
Launch site
Plesetsk Missile And Space Complex (PKMTR)
Object type
Payload
Rocket body
Debris
Shape & HBR
Unknown shape, 0.1 m
Radar Cross Section
Small (<0.1 m²)

Expand to show TLE details & history
Last TLE update: 1 month ago

TLE from 1 month ago
0 COSMOS 2491 DEB
1 57556U 13076AT  26088.57582219  .00001863  00000-0  12080-1 0  9998
2 57556  82.4695 210.5603 0061887 173.6352 186.5532 12.50184796131680
Epoch: 2026-03-29T13:49Z
TLE epoch observation values (Epoch: 2026-03-29T13:49:11.037Z)
Latitude
-0.00001°
Longitude
176.28457°
Altitude
1,514.658 km
Speed
7.086 km/s
True Right ascension
14h 02m 14s
True Declination
0° 00' 00"
Sunlit
Object was in full shadow at epoch
Visualization orbit readout
Latitude
Unknown
Longitude
Unknown
Altitude
Unknown
Speed
Unknown
Apparent Right ascension
Unknown
Apparent Declination
Unknown
Sunlit
N/A
Visualization observer readout
Local Sidereal Time
17:12:38
Azimuth
Unknown
Elevation
Unknown
Doppler factor
Unknown
Orbital elements
Apogee altitude
1,509.578 km
Perigee altitude
1,412.55 km
Semi-major axis
7,839.201 km
Eccentricity
0.00619
Inclination
82.4695°
RAAN
210.5603°
Arg. of periapsis
173.6352°
True anomaly
186.47288°
Mean anomaly
186.5532°
Eccentric anomaly
186.51298°
Mean motion
3.12705 °/min
Orbital period
115.12 mins
BSTAR
0.01208
Loading maneuver chart data...
Computing Atmospheric mass density...
Loading historical data...
Loading historical data...
Loading historical data...
Loading historical data...
Loading historical data...
Loading historical data...
Loading historical data...

Documentation

Showing up to 5 results
|